Location: Unspecified
(41.1637°N, 24.2901°E)
Time: 01:48:30
(UTC+01:00)

ISS - Pass Details

Date: 20 January 2026
Orbit: 413 x 424 km, 51.6° (Epoch: 16 January)

Event Time Altitude Azimuth Distance (km) Brightness Sun altitude
Rises 17:53:31 0° 299° (WNW) 2,352 0.8 -16.6°
Reaches altitude 10° 17:56:26 10° 327° (NNW) 1,491 -0.7 -17.1°
Maximum altitude 17:58:13 14° 359° (N) 1,288 -1.4 -17.5°
Enters shadow 17:58:26 14° 4° (N) 1,291 -1.4 -17.5°
